SCP
0 -0 -0 -0 -0 -0 0 0 0 0 0 0 0 0 0 0 0 0 0 0 0 0 0 0 0 0 0 0 0 0 0 0 0 0 0 0 0 0 0 0 0 0 0
0 0 0 -0 -0 0 0 0 0 0 0 0 0 0 0 0 0 0 0 0 0 0 0 0 0 0 0 0 0 0 0 0 0 0 0 0 0 0 0 0 0 0 0
0 0 0 0 0 0 0 0 0 0 0 0 0 0 0 0 0 0 0 0 0 0 0 0 0 0 0 0 0 0 0 0 0 0 0 0 0 0 0 0 0 0 0
0 0 0 0 0 0 0 0 0 0 0 0 0 0 0 0 0 0 0 0 0 0 0 0 0 0 0 0 0 0 0 0 0 0 0 0 0 0 0 0 0 0 0
0 0 0 0 0 0 0 0 0 0 0 0 0 0 0 0 0 0 0 0 0 0 0 0 0 0 0 0 0 0 0 0 0 0 0 0 0 0 0 0 0 0 0
0 0 0 0 0 0 0 0 0 0 0 0 0 0 0 0 0 0 0 0 0 0 0 0 0 0 0 0 0 0 0 0 0 0 0 0 0 0 0 0 0 0 0
0 0 0 0 0 0 0 0 0 0 0 0 0 0 0 0 0 0 0 0 0 0 0 0 0 0 0 0 0 0 0 0 0 0 0 0 0 0 0 0 0 0 0
0 0 0 0 0 0 0 0 0 0 0 0 0 0 0 0 0 0 0 0 0 0 0 0 0 0 0 0 0 0 0 0 0 0 0 0 0 0 0 0 0 0 0
0 0 0 0 0 0 0 0 0 0 0 0 0 0 0 0 0 0 0 0 0 0 0 0 0 0 0 0 0 0 0 0 0 0 0 0 0 0 0 0 0 0 0
0 0 0 0 0 0 0 0 0 0 0 0 0 0 0 0 0 0 0 0 0 0 0 0 0 0 0 0 0 0 0 0 0 0 0 0 0 0 0 0 0 0 0
0 0 0 0 0 0 0 0 0 0 0 0 0 0 0 0 0 0 0 0 0 0 0 0 0 0 0 0 0 0 0 0 0 0 0 0 0 0 0 0 0 0 0
0 0 0 0 0 0 0 0 0 0 0 0 0 0 0 0 0 0 0 0 0 0 0 0 0 0 0 0 0 0 0 0 0 0 0 0 0 0 0 0 0 0 0
0 0 0 0 0 0 0 0 0 0 0 0 0 0 0 0 0 0 0 0 0 0 0 0 0 0 0 0 0 0 0 0 0 0 0 0 0 0 0 0 0 0 0
0 0 0 0 0 0 0 0 0 0 0 0 0 0 0 0 0 0 0 0 0 0 0 0 0 0 0 0 0 0 0 0 0 0 0 0 0 0 0 0 0 0 0
0 0 0 0 0 0 0 0 0 0 0 0 0 0 0 0 0 0 0 0 0 0 0 0 0 0 0 0 0 0 0 0 0 0 0 0 0 0 0 0 0 0 0
0 0 0 0 0 0 0 0 0 0 0 0 0 0 0 0 0 0 0 0 0 0 0 0 0 0 0 0 0 0 0 0 0 0 0 0 0 0 0 0 0 0 0
0 0 0 0 0 0 0 0 0 0 0 0 0 0 0 0 0 0 0 0 0 0 0 0 0 0 0 0 0 0 0 0 0 0 0 0 0 0 0 0 0 0 0
0 0 0 0 0 0 0 0 0 0 0 0 0 0 0 0 0 0 0 0 0 0 0 0 0 0 0 0 0 0 0 0 0 0 0 0 0 0 0 0 0 0 0
0 0 0 0 0 0 0 0 0 0 0 0 0 0 0 0 0 0 0 0 0 0 0 0 0 0 0 0 0 0 0 0 0 0 0 0 0 0 0 0 0 0 0
0 0 0 0 0 0 0 0 0 0 0 0 0 0 0 0 0 0 0 0 0 0 0 0 0 0 0 0 0 0 0 0 0 0 0 0 0 0 0 0 0 0 0
0 0 0 0 0 0 0 0 0 0 0 0 0 0 0 0 0 0 0 0 0 0 0 0 0 0 0 0 0 0 0 0 0 0 0 0 0 0 0 0 0 0 0
0 0 0 0 0 0 0 0 0 0 0 0 0 0 0 0 0 0 0 0 0 0 0 0 0 0 0 0 0 0 0 0 0 0 0 0 0 0 0 0 0 0 0
0 0 0 0 0 0 0 0 0 0 0 0 0 0 0 0 0 0 0 0 0 0 0 0 0 0 0 0 0 0 0 0 0 0 0 0 0 0 0 0 0 0 0
0 0 0 0 0 0 0 0 0 0 0 0 0 0 0 0 0 0 0 0 0 0 0 0 0 0 0 0 0 0 0 0 0 0 0 0 0 0 0 0 0 0 0
0 0 0 0 0 0 0 0 0 0 0 0 0 0 0 0 0 0 0 0 0 0 0 0 0 0 0 0 0 0 0 0 0 0 0 0 0 0 0 0 0 0 0
0 0 0 0 0 0 0 0 0 0 0 0 0 0 0 0 0 0 0 0 0 0 0 0 0 0 0 0 0 0 0 0 0 0 0 0 0 0 0 0 0 0 0
Wind_Speed
2 2 1 1 2 2 2 2 2 3 3 2 2 3 3 3 3 2 2 6 6 6 7 8 9 8 8 8 7 7 8 8 8 8 7 8 8 8 7 7 7 6 6
2 2 1 1 1 1 1 2 2 2 2 2 2 2 3 3 3 3 2 3 5 5 6 7 8 8 8 7 7 7 7 7 7 7 7 7 7 7 7 7 6 6 5
3 2 1 1 1 1 2 2 2 2 2 2 2 2 2 2 2 2 2 1 2 4 6 6 6 7 7 7 7 8 7 7 7 7 7 6 6 6 6 6 6 6 5
4 3 2 1 1 2 2 2 2 2 2 2 1 1 1 1 2 2 2 2 1 2 4 6 6 6 7 7 8 8 8 8 8 7 7 7 7 7 6 6 6 5 5
4 3 2 2 2 2 1 2 2 2 2 2 1 1 0 1 1 2 3 3 2 2 2 3 5 5 7 7 8 8 8 8 8 8 8 8 8 7 7 6 6 6 5
4 4 3 2 3 2 2 2 2 2 2 2 1 1 1 1 1 2 3 3 3 4 3 3 3 3 6 7 7 8 9 9 9 9 9 9 9 8 8 7 7 7 7
5 4 3 3 3 3 3 3 2 2 1 1 2 2 2 1 1 2 2 2 3 4 4 4 3 3 3 6 7 8 10 10 9 9 9 9 10 9 9 9 8 8 7
5 5 4 4 4 3 3 3 3 2 1 1 2 2 1 2 2 1 1 3 4 3 4 5 4 4 4 3 4 8 9 10 10 10 10 10 10 9 9 9 9 8 8
6 5 5 4 4 4 4 4 4 4 2 1 1 3 2 2 2 2 1 2 3 3 4 4 5 6 5 4 4 6 8 9 10 11 10 10 10 10 9 10 10 9 9
6 6 6 5 5 4 4 5 4 3 4 2 1 1 1 3 2 1 2 1 2 3 4 4 5 5 5 5 5 7 8 8 9 10 11 10 10 10 10 10 11 10 9
5 6 6 6 5 4 5 5 4 4 3 3 3 2 2 1 1 2 2 2 2 2 3 4 4 4 5 5 5 7 9 9 9 10 10 10 10 10 10 11 11 11 10
4 5 6 6 6 5 5 5 5 5 4 4 3 3 3 3 3 3 2 2 2 2 2 3 4 4 4 5 7 8 9 9 10 9 9 9 10 10 10 10 11 11 10
4 6 6 5 5 5 5 5 5 5 6 5 5 4 3 3 3 3 2 2 2 2 2 2 3 4 4 4 5 8 9 10 10 10 10 9 9 9 10 10 10 10 10
6 6 6 6 6 6 6 5 5 5 5 5 6 4 3 4 3 4 3 3 1 1 2 3 2 4 4 4 6 8 6 9 10 10 10 10 10 10 9 9 9 9 9
5 6 6 6 6 6 6 5 4 5 5 5 5 5 4 3 4 4 3 4 3 2 3 3 3 2 3 3 5 5 6 8 9 10 10 10 10 10 10 10 9 9 9
6 7 7 7 6 6 5 5 4 5 5 5 4 5 4 3 3 3 4 3 3 3 3 3 3 2 2 3 5 5 6 7 9 10 10 10 10 11 11 11 11 10 10
7 7 7 7 6 7 6 6 6 6 6 5 5 5 5 4 4 3 3 3 4 4 4 4 2 2 3 3 3 4 4 5 5 9 10 10 11 11 11 11 11 11 11
6 7 7 6 7 7 6 7 7 7 7 7 6 6 6 4 5 4 4 4 4 4 4 5 3 2 4 3 3 3 3 4 5 7 9 10 11 11 11 11 11 11 12
5 6 6 7 7 6 6 7 7 6 6 6 6 6 6 6 6 5 5 4 4 4 3 3 3 2 2 1 2 3 3 3 4 5 7 9 10 10 11 11 11 12 12
6 6 6 6 6 6 6 6 6 5 5 5 5 6 6 7 7 6 5 5 4 3 3 3 2 2 2 2 1 2 3 2 3 3 4 5 6 8 10 11 11 12 12
6 5 5 5 5 5 5 6 6 5 5 5 4 5 5 6 7 6 5 5 5 4 3 3 2 2 2 2 3 2 3 3 3 2 3 3 3 4 5 6 8 10 11
4 4 4 5 5 4 5 7 5 4 4 5 4 4 4 5 7 8 8 7 7 6 5 4 3 3 4 4 3 2 2 2 3 1 2 2 1 3 4 3 5 6 7
4 4 4 4 4 3 5 5 6 4 4 3 4 4 3 4 5 4 5 5 5 5 6 5 4 4 4 4 3 3 4 4 4 1 1 3 2 3 3 3 4 4 5
4 3 3 3 2 1 3 4 4 3 3 3 3 4 3 3 3 4 3 3 2 2 4 4 4 4 4 4 4 4 3 3 2 1 2 3 2 3 3 3 3 4 4
4 3 3 3 3 2 2 3 3 2 2 2 2 2 2 2 2 4 4 3 2 2 1 2 2 1 1 2 1 1 1 2 3 2 1 2 2 2 2 3 2 2 3
4 4 3 3 3 2 2 3 4 2 2 1 0 0 1 1 1 3 3 3 3 3 1 1 0 1 1 2 1 1 2 2 2 2 1 1 2 2 2 1 1 2 2
Wind_Direction
124 108 92 77 75 73 74 71 72 81 92 99 112 122 125 129 135 134 147 165 166 167 163 161 156 152 152 152 150 148 151 149 148 145 144 145 147 149 150 149 146 143 141
148 140 121 95 80 80 82 82 87 94 90 97 106 122 134 138 140 140 137 163 173 177 175 170 166 165 165 165 163 161 165 162 157 155 152 152 155 158 158 157 159 159 157
161 157 155 153 140 107 99 88 78 75 86 93 96 109 128 140 146 151 156 160 177 186 188 188 182 179 178 178 176 177 177 171 167 167 165 163 163 162 164 168 172 172 170
169 161 167 181 147 120 116 112 95 81 75 86 91 88 108 134 166 171 172 179 184 197 206 203 197 194 192 192 191 191 189 185 181 181 179 178 177 174 174 179 182 180 181
174 167 175 177 146 131 135 139 105 112 117 110 110 90 87 173 197 198 201 202 200 202 208 215 214 209 208 205 204 203 199 194 192 193 193 192 190 188 188 190 191 191 192
177 168 171 173 151 142 145 128 118 99 110 124 110 78 12 265 227 221 225 216 212 215 210 217 224 225 222 218 217 212 208 205 202 202 203 202 200 197 198 201 203 205 205
179 174 173 164 163 169 171 151 130 123 113 116 90 41 3 351 254 237 230 223 224 224 215 215 217 221 227 226 224 220 217 215 212 210 210 210 209 206 206 209 211 213 214
182 186 176 175 174 167 163 159 149 136 136 140 127 100 7 345 333 261 226 223 229 222 223 222 215 217 221 223 226 225 222 222 220 219 217 214 213 211 212 215 216 218 220
187 187 183 178 178 176 182 184 172 163 168 166 148 147 153 230 306 326 284 243 230 220 225 222 221 221 219 220 227 231 229 224 225 225 223 218 215 213 216 221 224 226 227
190 189 185 183 182 182 186 193 184 172 160 173 172 175 170 164 164 315 322 306 264 237 233 229 227 226 221 220 223 227 228 224 227 230 229 223 218 218 220 224 228 230 229
197 193 187 185 186 189 193 193 181 180 176 176 175 170 154 135 150 169 271 309 309 264 241 235 234 230 223 221 224 229 227 225 227 229 229 227 226 225 224 226 230 232 232
199 200 194 192 191 191 197 198 191 189 194 189 184 179 173 174 184 178 209 246 270 281 262 241 234 233 229 224 228 227 225 225 225 227 229 230 232 231 230 230 232 235 238
202 206 201 195 196 198 198 194 194 200 198 196 198 201 199 200 173 168 174 211 250 283 290 259 236 234 233 225 230 227 227 225 224 225 227 230 233 234 232 232 234 236 239
207 199 199 200 202 201 202 195 200 206 200 205 210 203 205 209 189 183 177 172 216 276 273 265 258 230 232 226 229 225 232 226 226 227 230 232 232 232 232 233 234 235 237
203 195 198 203 205 204 203 193 204 206 197 205 211 207 211 213 203 205 191 181 180 223 261 257 254 243 229 226 227 221 228 231 229 230 231 233 232 231 232 233 235 237 238
201 194 198 202 202 200 200 198 203 203 199 207 204 205 213 214 209 202 200 201 196 198 239 253 243 257 247 241 227 225 231 234 235 233 233 234 234 233 233 234 234 235 238
198 197 196 197 197 196 194 197 206 200 203 211 209 208 218 209 209 206 200 201 202 194 230 264 249 249 237 247 246 235 235 233 238 235 235 235 235 236 236 236 236 236 237
199 197 194 195 201 202 197 201 209 207 209 214 213 208 220 216 214 210 203 208 210 203 211 248 259 243 242 252 254 252 250 242 242 242 237 238 238 238 238 238 238 239 239
194 196 195 198 203 201 200 205 210 210 213 218 214 210 219 213 218 213 207 210 214 211 209 229 258 261 262 269 265 266 261 260 258 253 243 241 240 241 243 242 241 241 241
197 200 200 200 201 199 200 203 205 211 215 219 217 217 221 218 217 210 209 209 206 204 205 222 249 267 270 270 254 262 271 255 261 270 257 248 244 243 245 245 244 244 243
202 200 197 198 198 200 207 206 205 208 210 220 225 222 223 220 217 210 206 202 197 200 201 211 231 246 253 246 244 240 253 270 262 250 262 260 255 257 256 252 250 250 249
191 184 191 193 197 208 207 203 198 201 205 212 223 228 226 225 225 219 215 204 193 198 203 204 218 229 246 244 247 237 244 259 272 240 232 268 248 263 266 262 266 262 257
181 174 180 181 193 200 193 195 191 189 199 212 219 227 236 233 218 215 211 206 209 212 203 198 210 229 242 240 231 237 230 233 246 259 219 270 268 268 278 286 279 275 274
167 169 166 162 157 172 173 187 188 186 195 213 220 222 226 233 218 195 187 187 204 215 212 208 216 238 250 254 233 238 239 237 252 271 214 258 274 274 286 285 293 285 287
143 141 136 136 139 146 149 157 153 152 178 218 230 226 211 215 217 185 178 194 218 239 218 180 195 233 291 309 274 217 225 229 263 270 214 247 277 282 286 286 298 311 315
132 126 115 116 126 124 123 139 146 141 147 182 307 331 292 235 219 181 188 199 221 242 226 132 107 320 309 321 342 215 237 239 257 277 259 233 277 294 290 281 307 330 326